Regional Weather Roundup
Issued by NWS

Home | Current Version | Previous Version | Text Only | Print | Product List | Glossary On
Versions: 1 2 3 4 5 6 7 8 9 10 11 12 13 14 15 16 17 18 19 20 21 22 23 24 25 26 27 28 29 30 31 32 33 34 35 36 37 38 39 40 41 42 43 44 45 46 47 48 49 50
000
ASUS43 KDMX 222306
RWRIA

WEATHER ROUNDUP FOR IOWA
NATIONAL WEATHER SERVICE DES MOINES IA
500 PM CST WED FEB 22 2017

NOTE: "FAIR" INDICATES FEW OR NO CLOUDS BELOW 12,000 FEET WITH NO
SIGNIFICANT WEATHER AND/OR OBSTRUCTIONS TO VISIBILITY.

* - THESE STATIONS ARE NOT NWS STATIONS...THUS NOT UNDER NWS
QUALITY CONTROL.  THEY ALSO DO NOT REPORT WEATHER SUCH
AS PRECIPITATION OR FOG.

IAZ001>003-012>014-020>022-031>034-043>046-230000-
   NORTHWEST IOWA

CITY           SKY/WX    TMP DP  RH WIND       PRES   REMARKS
CARROLL *      CLEAR     64  43  45 NW20      29.63S
CHEROKEE *     SUNNY     62  41  46 NW13G24   29.64R
DENISON *      SUNNY     64  37  36 NW13G24   29.63S
LE MARS *      SUNNY     59  43  55 NW20      29.68R
ORANGE CITY *  SUNNY     57  43  58 NW17G24   29.68R
SHELDON *      SUNNY     55  46  71 NW18G24   29.65R
SIOUX CITY     SUNNY     64  37  36 NW17      29.67R
SPENCER        CLEAR     59  42  53 NW20      29.64R
STORM LAKE *   SUNNY     61  41  48 NW17      29.64S
$$

IAZ055>058-069>071-079>083-090>094-230000-
   SOUTHWEST IOWA

CITY           SKY/WX    TMP DP  RH WIND       PRES   REMARKS
ATLANTIC *     SUNNY     66  39  37 NW10G18   29.65R
CLARINDA *     SUNNY     70  39  32 NW8       29.66R
COUNCIL BLFS * SUNNY     68  39  34 N12       29.66R
CRESTON *      SUNNY     68  41  37 NW12      29.65R
HARLAN  *      SUNNY     64  41  42 N13G20    29.69R
LAMONI         CLEAR     71  38  29 NW12      29.62R
RED OAK *      SUNNY     70  39  32 NW14      29.66R
SHENANDOAH *   SUNNY     72  41  33 NW8       29.65R
$$

IAZ047>049-059>061-072>074-084-230000-
   CENTRAL IOWA

CITY           SKY/WX    TMP DP  RH WIND       PRES   REMARKS
AMES           CLEAR     67  48  50 NW14      29.60R
ANKENY *       CLEAR     68  43  40 W9        29.62R
BOONE *        CLEAR     66  45  45 NW15G21   29.60R
CHARITON *     CLEAR     70  37  30 W14       29.61R
DES MOINES     PTCLDY    70  41  34 NW15      29.61R
GRINNELL*      CLEAR     66  39  36 W15       29.61R
KNOXVILLE *    CLEAR     68  37  32 W10G17    29.60R
MARSHALLTOWN   CLEAR     64  45  49 W12       29.59R
NEWTON *       CLEAR     66  41  39 NW12      29.60R
PELLA *        CLEAR     69  37  30 W12       29.61R
PERRY *          N/A     65  41  40 NW10      29.62R
$$

IAZ004>006-015-016-023>025-035-036-230000-
   NORTH CENTRAL IOWA

CITY           SKY/WX    TMP DP  RH WIND       PRES   REMARKS
ALGONA *       CLEAR     61  46  59 NW13      29.62R
CLARION *      CLEAR     61  54  77 NW7       29.61R
ESTHERVILLE    CLEAR     58  46  64 W18       29.61R
FORT DODGE *   CLEAR     64  45  48 W7        29.63R
MASON CITY     CLEAR     58  46  64 W9        29.60S
FOREST CITY *    N/A     59  46  63 W6        29.59S
WEBSTER CITY * CLEAR     64  48  55 W15       29.59R
IOWA FALLS *     N/A     64  50  60 NW10      29.60S
$$

IAZ007>011-017>019-026>030-037>042-050>054-066-230000-
   NORTHEAST IOWA

CITY           SKY/WX    TMP DP  RH WIND       PRES   REMARKS
CEDAR RAPIDS   CLEAR     69  42  37 W13       29.55R
CHARLES CITY * CLEAR     57  46  67 NW17G24   29.59R
CLINTON *      CLEAR     68  51  54 S20       29.57R
DECORAH *      CLEAR     61  45  55 NW9       29.55R
DUBUQUE        CLEAR     66  49  54 S15       29.54R
MONTICELLO *   CLEAR     70  45  40 W15G22    29.54R
OELWEIN *      CLEAR     63  46  55 W10       29.57R
WATERLOO       CLEAR     64  44  48 W13       29.58R
$$

IAZ064-065-067-068-078-230000-
   EAST CENTRAL IOWA

CITY           SKY/WX    TMP DP  RH WIND       PRES   REMARKS
DAVENPORT      CLEAR     68  48  48 S15G26    29.57R
IOWA CITY      CLEAR     74  41  30 SW13      29.56R
MUSCATINE *    CLEAR     70  52  52 S21       29.56F
QUAD CITIES    CLEAR    N/A N/A N/A S14G22    29.58R
$$

IAZ062-063-075>077-085>089-095>099-230000-
   SOUTHEAST IOWA

CITY           SKY/WX    TMP DP  RH WIND       PRES   REMARKS
BURLINGTON     CLEAR     67  53  61 S18       29.61R
FAIRFIELD *    CLEAR     73  41  31 SW13G22   29.57S
KEOKUK *       CLEAR     66  54  63 S15       29.61S
OTTUMWA        CLEAR     75  32  20 W12       29.57S
WASHINGTON *   CLEAR     73  43  33 SW14      29.58S
$$

ABBREVIATIONS USED IN REMARKS
   TC - TEMPERATURES IN CELSIUS
  WCI - WIND CHILL INDEX
   HX - HEAT INDEX
  VSB - VISIBILITY
$$




USA.gov is the U.S. government's official web portal to all federal, state and local government web resources and services.